Weather in Fomino-Negachevka

Russia / Lipetsk Oblast     52°02′18″N   39°03′31″E
temp.,
°C
wind,
m/s
gust,
m/s
humid.,
%
clouds,
%
prec.,
mm/h
press.,
hPa
HPBL,
m
23 april, fri
fri2300:00+9ssw347342 0.0 102054
03:00+10s3475100 0.0 102079
06:00+8s358352 0.0 102095
09:00+13s46645 0.0 1019479
12:00+16s674399 0.0 10182486
15:00+16s684693 0.0 10161895
18:00+15s475712 0.1 1015417
21:00+11s4107343 0.2 1014225
24 april, sat
sat2400:00+9s38817 0.0 1012175
03:00+9ssw71582100 0.1 1011791
06:00+6wnw6993100 2.8 1010576
09:00+4wnw5996100 5.8 1011671
12:00+9w586296 1.3 10101604
15:00+9w9115594 2.1 10112027
18:00+7w812564 0.2 10111590
21:00+4w813715 0.2 1013881
25 april, sun
sun2500:00+2w8147511 0.0 1014881
03:00+1w814785 0.0 1015742
06:00+1w714795 0.0 1016575
09:00+5w711595 0.0 10171272
12:00+8wsw81044100 0.1 10172548
15:00+10wsw683650 0.1 10162599
18:00+9sw7104455 0.0 10151291
21:00+7sw7135699 0.0 1016921
26 april, mon
mon2600:00+4wsw5893100 1.4 1016612
03:00+4wsw4789100 3.1 1016709
06:00+3wsw248794 0.1 1015365
09:00+6w3462100 0.1 10151040
12:00+8w3447100 0.0 10141916
15:00+9wsw3544100 0.0 10131933
18:00+8sw3449100 0.0 10121548
21:00+5nw247288 0.1 101398
27 april, tue
tue2700:00+4wsw357699 0.0 1012138
03:00+3wsw36845 0.0 1012129
06:00+2wsw388646 0.0 1012251
09:00+4w6775100 0.0 1012959
12:00+8w6746100 0.1 10132202
15:00+9wsw6743100 0.1 10122130
18:00+8wsw565044 0.3 10121319
21:00+4w376886 0.4 1013155